{"data":{"norad_id":53637,"intl_designator":"2022-104BB","name":"STARLINK-4396","alt_names":[],"object_type":"PAYLOAD","status":"ACTIVE","operator":null,"country":"US","launch_date":"2022-08-28","launch_site_code":"AFETR","launch_vehicle":null,"mission":null,"orbit_class":"UNKNOWN","rcs_meters":null,"size_class":null,"mass_kg":null,"dimensions":null,"purposes":["comms"],"wikipedia_slug":null,"has_3d_model":false,"image_url":null,"decayed_at":null,"tle_current":{"epoch":"2026-09-20T04:07:33.359232Z","epoch_age_seconds":110044,"freshness":"FRESH","line1":"1 53637U 22104BB  26263.17191388  .00000398  00000+0  22316-4 0  9997","line2":"2 53637  53.1610  63.5115 0001139  88.2573 271.8561 15.35395830225685","mean_motion":15.3539583,"eccentricity":0.0001139,"inclination_deg":53.161,"raan_deg":63.5115,"arg_perigee_deg":88.2573,"mean_anomaly_deg":271.8561,"bstar":2.2316e-5,"rev_number":22568,"period_min":93.786890120706,"perigee_km":458.96618867462,"apogee_km":460.52385819956,"semimajor_km":6837.8820234371,"source":"CELESTRAK","updated_at":"2026-09-21T09:00:32.946462Z"}}}